Weather History for Anapa, Russia

Change the Weather History Date:

Tuesday, February 5, 2013

  Actual Average Record
Temperature  
Mean Temperature 38 °F -  
Max Temperature 46 °F - - ()
Min Temperature 30 °F - - ()
Degree Days  
Heating Degree Days 27    
Moisture  
Dew Point 38 °F    
Average Humidity 85    
Maximum Humidity 93    
Minimum Humidity 64    
Precipitation  
Precipitation 0.20 in - - ()
Sea Level Pressure  
Sea Level Pressure 30.02 in    
Wind  
Wind Speed 8 mph ()    
Max Wind Speed 25 mph    
Max Gust Speed -    
Visibility 5.3 miles    
Events Rain    
T = Trace of Precipitation, MM = Missing Value Source: Averaged Metar Reports

Daily Weather History Graph

Daily Weather History Graph

Search for Another Location

Airport:

Trip Planner

Search our weather history database for the weather conditions in past years. The results will help you decide how hot, cold, wet, or windy it might be!

Date:

Astronomy

Feb. 05, 2013 Rise Set
Actual Time 8:45 AM MSK 6:44 PM MSK
Civil Twilight 8:14 AM MSK 7:15 PM MSK
Nautical Twilight 7:39 AM MSK 7:50 PM MSK
Astronomical Twilight 7:05 AM MSK 8:24 PM MSK
Moon 4:08 AM MSK (2/5) 1:37 PM MSK (2/5)
Length of Visible Light 11h 00m
Length of Day
9h 58m
Waning Crescent, 30% of the Moon is Illuminated
Feb 5
Waning Crescent
Feb 10
New
Feb 18
First Quarter
Feb 26
Full
Mar 5
Last Quarter

Hourly Weather History & Observations

Time (MSK) Temp. Windchill Dew Point Humidity Pressure Visibility Wind Dir Wind Speed Gust Speed Precip Events Conditions
12:00 AM 42.8 °F 37.6 °F 39.2 °F 87% 30.01 in 6.2 mi NNE 8.9 mph - N/A   Overcast
1:00 AM 47 °F - 45 °F 90% 29.99 in 2 mi SSW 6.7 mph - -   Mist
1:00 AM 42.8 °F 38.7 °F 39.2 °F 87% 29.98 in 3.1 mi NE 6.7 mph - N/A Rain Light Rain Showers
2:00 AM 42.8 °F 40.2 °F 41.0 °F 93% 29.98 in 3.1 mi North 4.5 mph - N/A Rain Light Rain
3:00 AM 41.0 °F 35.4 °F 39.2 °F 93% 29.98 in 3.1 mi NNE 8.9 mph - N/A Rain Light Rain
4:00 AM 43 °F - 41 °F 90% 29.98 in 2 mi ENE 6.7 mph - - Rain Light Rain Showers
4:00 AM 41.0 °F 38.1 °F 39.2 °F 93% 29.98 in 3.1 mi East 4.5 mph - N/A Rain Light Rain Showers
5:00 AM 42.8 °F 38.7 °F 41.0 °F 93% 29.95 in 3.1 mi East 6.7 mph - N/A Rain Light Rain Showers
6:00 AM 42.8 °F 38.7 °F 41.0 °F 93% 29.95 in 3.1 mi SE 6.7 mph - N/A Rain Light Rain
7:00 AM 45 °F - 42 °F 87% 29.95 in 2 mi ENE 2.2 mph - - Rain Light Rain Showers
7:00 AM 42.8 °F 40.2 °F 41.0 °F 93% 29.95 in 1.9 mi SE 4.5 mph - N/A Rain Light Rain
8:00 AM 42.8 °F 38.7 °F 41.0 °F 93% 29.92 in 3.1 mi SSE 6.7 mph - N/A Rain Light Rain
8:30 AM 42.8 °F 38.7 °F 41.0 °F 93% 29.92 in 6.2 mi SSE 6.7 mph - N/A   Overcast
9:00 AM 42.8 °F 38.7 °F 41.0 °F 93% 29.92 in 6.2 mi South 6.7 mph - N/A   Mostly Cloudy
9:30 AM 42.8 °F 37.6 °F 41.0 °F 93% 29.95 in 6.2 mi SSE 8.9 mph - N/A   Mostly Cloudy
10:00 AM 47 °F - 44 °F 86% 29.96 in 6 mi SSW 13.4 mph - -   Partly Cloudy
10:00 AM 44.6 °F 39.8 °F 42.8 °F 93% 29.95 in 6.2 mi South 8.9 mph - N/A Rain Light Rain Showers
10:30 AM 46.4 °F 39.9 °F 44.6 °F 93% 29.95 in 6.2 mi SW 15.7 mph - N/A Rain Light Rain Showers
11:00 AM 44.6 °F 35.6 °F 41.0 °F 87% 29.95 in 3.7 mi WSW 24.6 mph - N/A Rain Light Rain
11:30 AM 44.6 °F 38.2 °F 39.2 °F 81% 29.98 in 6.2 mi West 13.4 mph - N/A Rain Light Rain
12:00 PM 44.6 °F 38.2 °F 41.0 °F 87% 29.98 in 6.2 mi West 13.4 mph - N/A   Overcast
12:30 PM 42.8 °F 35.2 °F 39.2 °F 87% 30.01 in 6.2 mi WNW 15.7 mph - N/A   Overcast
1:00 PM 44 °F - 38 °F 73% 30.04 in 6 mi NW 8.9 mph - -   Partly Cloudy
1:00 PM 42.8 °F 35.2 °F 39.2 °F 87% 30.01 in 6.2 mi WNW 15.7 mph - N/A   Mostly Cloudy
1:30 PM 44.6 °F 37.6 °F 39.2 °F 81% 30.01 in 6.2 mi WNW 15.7 mph - N/A   Mostly Cloudy
2:00 PM 44.6 °F 37.6 °F 37.4 °F 76% 30.01 in 6.2 mi WNW 15.7 mph - N/A   Mostly Cloudy
2:30 PM 44.6 °F 37.6 °F 37.4 °F 76% 30.04 in 6.2 mi WNW 15.7 mph - N/A   Mostly Cloudy
3:00 PM 44.6 °F 37.6 °F 37.4 °F 76% 30.04 in 6.2 mi WNW 15.7 mph - N/A   Mostly Cloudy
3:30 PM 42.8 °F 35.2 °F 37.4 °F 81% 30.06 in 6.2 mi WNW 15.7 mph - N/A   Mostly Cloudy
4:00 PM 45 °F - 37 °F 64% 30.08 in 6 mi NW 6.7 mph - -   Partly Cloudy
4:00 PM 42.8 °F 35.2 °F 35.6 °F 76% 30.06 in 6.2 mi WNW 15.7 mph - N/A   Mostly Cloudy
4:30 PM 42.8 °F 36.7 °F 35.6 °F 76% 30.06 in 6.2 mi WNW 11.2 mph - N/A   Mostly Cloudy
5:00 PM 41.0 °F 33.6 °F 35.6 °F 81% 30.09 in 6.2 mi WNW 13.4 mph - N/A   Mostly Cloudy
5:30 PM 41.0 °F 34.4 °F 35.6 °F 81% 30.09 in 6.2 mi WNW 11.2 mph - N/A   Mostly Cloudy
6:00 PM 41.0 °F 35.4 °F 33.8 °F 76% 30.09 in 6.2 mi West 8.9 mph - N/A   Mostly Cloudy
6:30 PM 41.0 °F 36.5 °F 33.8 °F 76% 30.09 in 6.2 mi West 6.7 mph - N/A   Mostly Cloudy
7:00 PM 42 °F - 35 °F 68% 30.12 in 6 mi NW 4.5 mph - -   Mostly Cloudy
7:00 PM 39.2 °F 34.4 °F 33.8 °F 81% 30.09 in 6.2 mi NW 6.7 mph - N/A   Mostly Cloudy
7:30 PM 39.2 °F 36.0 °F 33.8 °F 81% 30.12 in 6.2 mi WNW 4.5 mph - N/A   Mostly Cloudy
8:00 PM 35.6 °F - 32.0 °F 87% 30.12 in 6.2 mi Calm Calm - N/A   Mostly Cloudy
8:30 PM 33.8 °F - 30.2 °F 87% 30.12 in 6.2 mi Variable 2.2 mph - N/A   Mostly Cloudy
9:00 PM 32.0 °F 27.6 °F 30.2 °F 93% 30.12 in 6.2 mi NE 4.5 mph - N/A   Mostly Cloudy
10:00 PM 38 °F - 34 °F 79% 30.14 in 6 mi ENE 6.7 mph - -   Scattered Clouds
10:00 PM 30.2 °F 23.5 °F 28.4 °F 93% 30.12 in 6.2 mi ESE 6.7 mph - N/A   Mostly Cloudy
11:00 PM 32.0 °F 25.7 °F 30.2 °F 93% 30.12 in 6.2 mi ESE 6.7 mph - N/A   Mostly Cloudy